Regional Weather Roundup
Issued by NWS

Home | Current Version | Previous Version | Text Only | Print | Product List | Glossary On
Versions: 1 2 3 4 5 6 7 8 9 10 11 12 13 14 15 16 17 18 19 20 21 22 23 24 25 26 27 28 29 30 31 32 33 34 35 36 37 38 39 40 41 42 43 44 45 46 47 48 49 50
530
ASUS43 KLSX 190407
RWRMO

WEATHER SUMMARY FOR MISSOURI
NATIONAL WEATHER SERVICE SPRINGFIELD MO
1000 PM CST SAT NOV 18 2017

NOTE: "FAIR" INDICATES FEW OR NO CLOUDS BELOW 12,000 FEET WITH NO
       SIGNIFICANT WEATHER AND/OR OBSTRUCTIONS TO VISIBILITY.
       CURRENT SKY AND/OR WEATHER CONDITIONS ARE NOT AVAILABLE FOR
       CHILLICOTHE AND FARMINGTON.

MOZ001>031-035>038-043-044-053-054-190500-
...NORTHERN AND WESTERN MISSOURI...

CITY           SKY/WX    TMP DP  RH WIND       PRES   REMARKS
KANSAS CTY INT CLEAR     37  27  67 NW8       30.19R
KANSAS C DTWN  CLEAR     42  27  55 NW9       30.19R
LEE`S SUMMIT   CLEAR     41  27  57 NW12      30.18R
ST JOSEPH      CLEAR     36  27  69 N12       30.20R WCI  28
CHILLICOTHE      N/A     38  26  62 NW9G21    30.16R
KIRKSVILLE     CLEAR     36  25  64 NW17G29   30.09R WCI  26

$$
MOZ066>068-077>081-088>096-101>105-190500-
...SOUTHWEST MISSOURI...

CITY           SKY/WX    TMP DP  RH WIND       PRES   REMARKS
SPRINGFIELD    CLEAR     40  32  73 NW7       30.14R
JOPLIN         CLEAR     40  33  76 NW9       30.21R
BRANSON        CLEAR     43  32  65 NW9       30.16R

$$
MOZ032>034-039>042-045>050-055>058-069>072-190500-
...CENTRAL MISSOURI...

CITY           SKY/WX    TMP DP  RH WIND       PRES   REMARKS
COLUMBIA       CLEAR     40  26  57 NW20G26   30.10R
JEFFERSON CITY CLEAR     43  23  45 NW12G23   30.11R
ROLLA          CLEAR     40  31  70 NW17G33   30.07R
SEDALIA        CLEAR     41  28  60 NW14      30.15R
WHITEMAN AFB   CLEAR     41  22  47 NW13      30.12R
WARRENSBURG    PTCLDY    39  27  60 NW12      30.17R
OSAGE BEACH    CLEAR     43  29  57 NW9G17    30.13R

$$
MOZ051-052-059>065-190500-
...EAST CENTRAL MISSOURI...

CITY           SKY/WX    TMP DP  RH WIND       PRES   REMARKS
ST LOUIS INTL  CLEAR     41  32  70 NW15G25   30.00R
SPIRIT OF STL  CLEAR     42  32  67 NW18G30   30.02R
ST CHARLES     MOCLDY    42  32  67 NW18G28   30.01R

$$
MOZ072>076-082>087-097>100-106>115-190500-
...SOUTH CENTRAL AND SOUTHEAST MISSOURI...

CITY           SKY/WX    TMP DP  RH WIND       PRES   REMARKS
CAPE GIRARDEAU CLEAR     43  32  65 NW10      30.01R
FARMINGTON     CLEAR     41  32  70 NW14G21   30.02R
POPLAR BLUFF   CLEAR     45  33  63 NW10      30.04R
WEST PLAINS    CLEAR     42  30  62 NW12G22   30.10R

$$



USA.gov is the U.S. government's official web portal to all federal, state and local government web resources and services.